Time,TemperatureF,DewpointF,PressureIn,WindDirection,WindDirectionDegrees,WindSpeedMPH,WindSpeedGustMPH,Humidity,HourlyPrecipIn,Conditions,Clouds,dailyrainin,SoftwareType,DateUTC
2013-02-17 00:02:00,19.0,7.0,29.51,ENE,74,0.0,-999.0,58,-99.99,,,-99.99,,2013-02-17 05:02:00,
2013-02-17 00:12:00,19.0,7.0,29.51,ENE,74,0.0,-999.0,58,-99.99,,,-99.99,,2013-02-17 05:12:00,
2013-02-17 00:22:00,19.0,8.0,29.50,NE,53,1.0,-999.0,61,-99.99,,,-99.99,,2013-02-17 05:22:00,
2013-02-17 00:33:00,18.0,7.0,29.54,NNW,333,0.0,-999.0,61,-99.99,,,-99.99,,2013-02-17 05:33:00,
2013-02-17 00:42:00,18.0,7.0,29.54,NNW,333,0.0,-999.0,61,-99.99,,,-99.99,,2013-02-17 05:42:00,
2013-02-17 00:52:00,18.0,7.0,29.49,North,10,1.0,-999.0,62,-99.99,,,-99.99,,2013-02-17 05:52:00,
2013-02-17 01:02:00,17.0,6.0,29.52,NE,39,1.0,-999.0,62,-99.99,,,-99.99,,2013-02-17 06:02:00,
2013-02-17 01:11:00,17.0,6.0,29.52,NE,39,1.0,-999.0,62,-99.99,,,-99.99,,2013-02-17 06:11:00,
2013-02-17 01:21:00,17.0,7.0,29.47,NNW,340,2.0,-999.0,63,-99.99,,,-99.99,,2013-02-17 06:21:00,
2013-02-17 01:32:00,17.0,7.0,29.52,NNE,25,2.0,-999.0,64,-99.99,,,-99.99,,2013-02-17 06:32:00,
2013-02-17 01:42:00,17.0,7.0,29.52,NNE,25,2.0,-999.0,64,-99.99,,,-99.99,,2013-02-17 06:42:00,
2013-02-17 01:52:00,17.0,7.0,29.45,NE,36,1.0,-999.0,65,-99.99,,,-99.99,,2013-02-17 06:52:00,
2013-02-17 02:01:00,16.0,7.0,29.48,NNE,25,2.0,-999.0,66,-99.99,,,-99.99,,2013-02-17 07:01:00,
2013-02-17 02:11:00,16.0,7.0,29.48,NNE,25,2.0,-999.0,66,-99.99,,,-99.99,,2013-02-17 07:11:00,
2013-02-17 02:21:00,16.0,7.0,29.48,East,82,1.0,-999.0,66,-99.99,,,-99.99,,2013-02-17 07:21:00,
2013-02-17 02:32:00,16.0,7.0,29.48,East,82,1.0,-999.0,66,-99.99,,,-99.99,,2013-02-17 07:32:00,
2013-02-17 02:42:00,16.0,7.0,29.48,East,82,1.0,-999.0,66,-99.99,,,-99.99,,2013-02-17 07:42:00,
2013-02-17 02:52:00,16.0,7.0,29.44,NNW,348,0.0,-999.0,66,-99.99,,,-99.99,,2013-02-17 07:52:00,
2013-02-17 03:01:00,15.0,6.0,29.48,NNW,341,0.0,-999.0,66,-99.99,,,-99.99,,2013-02-17 08:01:00,
2013-02-17 03:11:00,15.0,6.0,29.48,NNW,341,0.0,-999.0,66,-99.99,,,-99.99,,2013-02-17 08:11:00,
2013-02-17 03:22:00,16.0,7.0,29.42,ENE,59,0.0,-999.0,66,-99.99,,,-99.99,,2013-02-17 08:22:00,
2013-02-17 03:32:00,15.0,6.0,29.46,NE,41,0.0,-999.0,67,-99.99,,,-99.99,,2013-02-17 08:32:00,
2013-02-17 03:42:00,15.0,6.0,29.46,NE,41,0.0,-999.0,67,-99.99,,,-99.99,,2013-02-17 08:42:00,
2013-02-17 03:52:00,15.0,6.0,29.41,NNW,348,1.0,-999.0,67,-99.99,,,-99.99,,2013-02-17 08:52:00,
2013-02-17 04:02:00,15.0,6.0,29.45,NNE,27,2.0,-999.0,68,-99.99,,,-99.99,,2013-02-17 09:02:00,
2013-02-17 04:11:00,15.0,6.0,29.45,NNE,27,2.0,-999.0,68,-99.99,,,-99.99,,2013-02-17 09:11:00,
2013-02-17 04:21:00,15.0,7.0,29.42,North,9,2.0,-999.0,69,-99.99,,,-99.99,,2013-02-17 09:21:00,
2013-02-17 04:32:00,14.0,6.0,29.45,NE,42,0.0,-999.0,70,-99.99,,,-99.99,,2013-02-17 09:32:00,
2013-02-17 04:42:00,14.0,6.0,29.45,NE,42,0.0,-999.0,70,-99.99,,,-99.99,,2013-02-17 09:42:00,
2013-02-17 04:52:00,14.0,6.0,29.44,NW,313,2.0,-999.0,71,-99.99,,,-99.99,,2013-02-17 09:52:00,
2013-02-17 05:01:00,14.0,6.0,29.44,NW,313,2.0,-999.0,71,-99.99,,,-99.99,,2013-02-17 10:01:00,
2013-02-17 05:11:00,14.0,6.0,29.44,NW,313,2.0,-999.0,71,-99.99,,,-99.99,,2013-02-17 10:11:00,
2013-02-17 05:21:00,14.0,7.0,29.40,NE,45,1.0,-999.0,72,-99.99,,,-99.99,,2013-02-17 10:21:00,
2013-02-17 05:32:00,14.0,7.0,29.45,NE,55,1.0,-999.0,72,-99.99,,,-99.99,,2013-02-17 10:32:00,
2013-02-17 05:42:00,14.0,7.0,29.45,NE,55,1.0,-999.0,72,-99.99,,,-99.99,,2013-02-17 10:42:00,
2013-02-17 05:52:00,14.0,7.0,29.37,North,9,1.0,-999.0,73,-99.99,,,-99.99,,2013-02-17 10:52:00,
2013-02-17 06:01:00,13.0,6.0,29.40,NNE,28,2.0,-999.0,73,-99.99,,,-99.99,,2013-02-17 11:01:00,
2013-02-17 06:11:00,13.0,6.0,29.40,NNE,28,2.0,-999.0,73,-99.99,,,-99.99,,2013-02-17 11:11:00,
2013-02-17 06:22:00,14.0,7.0,29.38,NE,42,0.0,-999.0,74,-99.99,,,-99.99,,2013-02-17 11:22:00,
2013-02-17 06:32:00,13.0,7.0,29.42,WNW,287,1.0,-999.0,75,-99.99,,,-99.99,,2013-02-17 11:32:00,
2013-02-17 06:42:00,13.0,7.0,29.42,WNW,287,1.0,-999.0,75,-99.99,,,-99.99,,2013-02-17 11:42:00,
2013-02-17 06:53:00,13.0,7.0,29.36,South,173,0.0,-999.0,76,-99.99,,,-99.99,,2013-02-17 11:53:00,
2013-02-17 07:03:00,13.0,7.0,29.40,NE,44,1.0,-999.0,76,-99.99,,,-99.99,,2013-02-17 12:03:00,
2013-02-17 07:11:00,13.0,7.0,29.40,NE,44,1.0,-999.0,76,-99.99,,,-99.99,,2013-02-17 12:11:00,
2013-02-17 07:22:00,13.0,7.0,29.40,North,355,1.0,-999.0,76,-99.99,,,-99.99,,2013-02-17 12:22:00,
2013-02-17 07:32:00,13.0,7.0,29.40,North,355,1.0,-999.0,76,-99.99,,,-99.99,,2013-02-17 12:32:00,
2013-02-17 07:42:00,13.0,7.0,29.40,North,355,1.0,-999.0,76,-99.99,,,-99.99,,2013-02-17 12:42:00,
2013-02-17 07:52:00,13.0,7.0,29.34,North,11,2.0,-999.0,77,-99.99,,,-99.99,,2013-02-17 12:52:00,
2013-02-17 08:02:00,12.0,6.0,29.38,West,273,2.0,-999.0,77,-99.99,,,-99.99,,2013-02-17 13:02:00,
2013-02-17 08:12:00,12.0,6.0,29.38,West,273,2.0,-999.0,77,-99.99,,,-99.99,,2013-02-17 13:12:00,
2013-02-17 08:22:00,13.0,7.0,29.32,WNW,286,4.0,-999.0,77,-99.99,,,-99.99,,2013-02-17 13:22:00,
2013-02-17 08:32:00,12.0,6.0,29.37,NNW,338,3.0,-999.0,77,-99.99,,,-99.99,,2013-02-17 13:32:00,
2013-02-17 08:42:00,12.0,6.0,29.37,NNW,338,3.0,-999.0,77,-99.99,,,-99.99,,2013-02-17 13:42:00,
2013-02-17 08:52:00,13.0,7.0,29.31,NE,42,2.0,-999.0,77,-99.99,,,-99.99,,2013-02-17 13:52:00,
2013-02-17 09:01:00,12.0,6.0,29.35,NE,49,1.0,-999.0,77,-99.99,,,-99.99,,2013-02-17 14:01:00,
2013-02-17 09:11:00,12.0,6.0,29.35,NE,49,1.0,-999.0,77,-99.99,,,-99.99,,2013-02-17 14:11:00,
2013-02-17 09:22:00,13.0,7.0,29.30,NW,320,1.0,-999.0,75,-99.99,,,-99.99,,2013-02-17 14:22:00,
2013-02-17 09:32:00,13.0,6.0,29.33,NW,325,3.0,-999.0,73,-99.99,,,-99.99,,2013-02-17 14:32:00,
2013-02-17 09:42:00,13.0,6.0,29.33,NW,325,3.0,-999.0,73,-99.99,,,-99.99,,2013-02-17 14:42:00,
2013-02-17 09:53:00,13.0,5.0,29.28,NE,36,3.0,-999.0,69,-99.99,,,-99.99,,2013-02-17 14:53:00,
2013-02-17 10:02:00,13.0,5.0,29.28,NE,36,3.0,-999.0,69,-99.99,,,-99.99,,2013-02-17 15:02:00,
2013-02-17 10:11:00,13.0,5.0,29.28,NE,36,3.0,-999.0,69,-99.99,,,-99.99,,2013-02-17 15:11:00,
2013-02-17 10:22:00,14.0,6.0,29.27,WNW,284,3.0,-999.0,69,-99.99,,,-99.99,,2013-02-17 15:22:00,
2013-02-17 10:32:00,13.0,4.0,29.31,NW,309,3.0,-999.0,68,-99.99,,,-99.99,,2013-02-17 15:32:00,
2013-02-17 10:42:00,13.0,4.0,29.31,NW,309,3.0,-999.0,68,-99.99,,,-99.99,,2013-02-17 15:42:00,
2013-02-17 10:52:00,14.0,4.0,29.26,NNW,336,3.0,-999.0,65,-99.99,,,-99.99,,2013-02-17 15:52:00,
2013-02-17 11:01:00,13.0,3.0,29.30,NNW,340,5.0,-999.0,64,-99.99,,,-99.99,,2013-02-17 16:01:00,
2013-02-17 11:12:00,13.0,3.0,29.30,NNW,340,5.0,-999.0,64,-99.99,,,-99.99,,2013-02-17 16:12:00,
2013-02-17 11:22:00,14.0,3.0,29.24,NW,320,4.0,-999.0,62,-99.99,,,-99.99,,2013-02-17 16:22:00,
2013-02-17 11:32:00,14.0,3.0,29.29,NE,48,3.0,-999.0,62,-99.99,,,-99.99,,2013-02-17 16:32:00,
2013-02-17 11:42:00,14.0,3.0,29.29,NE,48,3.0,-999.0,62,-99.99,,,-99.99,,2013-02-17 16:42:00,
2013-02-17 11:52:00,14.0,3.0,29.24,West,276,5.0,-999.0,61,-99.99,,,-99.99,,2013-02-17 16:52:00,
2013-02-17 12:02:00,13.0,1.0,29.28,NNE,30,5.0,-999.0,59,-99.99,,,-99.99,,2013-02-17 17:02:00,
2013-02-17 12:11:00,13.0,1.0,29.28,NNE,30,5.0,-999.0,59,-99.99,,,-99.99,,2013-02-17 17:11:00,
2013-02-17 12:21:00,14.0,3.0,29.28,NE,46,6.0,-999.0,60,-99.99,,,-99.99,,2013-02-17 17:21:00,
2013-02-17 12:32:00,14.0,3.0,29.28,NE,46,6.0,-999.0,60,-99.99,,,-99.99,,2013-02-17 17:32:00,
2013-02-17 12:42:00,14.0,3.0,29.28,NE,46,6.0,-999.0,60,-99.99,,,-99.99,,2013-02-17 17:42:00,
2013-02-17 12:52:00,15.0,3.0,29.22,North,5,4.0,-999.0,59,-99.99,,,-99.99,,2013-02-17 17:52:00,
2013-02-17 13:02:00,14.0,2.0,29.27,NNW,328,4.0,-999.0,59,-99.99,,,-99.99,,2013-02-17 18:02:00,
2013-02-17 13:11:00,14.0,2.0,29.27,NNW,328,4.0,-999.0,59,-99.99,,,-99.99,,2013-02-17 18:11:00,
2013-02-17 13:22:00,15.0,3.0,29.21,NE,39,4.0,-999.0,59,-99.99,,,-99.99,,2013-02-17 18:22:00,
2013-02-17 13:33:00,14.0,3.0,29.26,NNW,341,7.0,-999.0,60,-99.99,,,-99.99,,2013-02-17 18:33:00,
2013-02-17 13:42:00,14.0,3.0,29.26,NNW,341,7.0,-999.0,60,-99.99,,,-99.99,,2013-02-17 18:42:00,
2013-02-17 13:52:00,14.0,3.0,29.21,WNW,292,5.0,-999.0,60,-99.99,,,-99.99,,2013-02-17 18:52:00,
2013-02-17 14:01:00,14.0,3.0,29.25,North,360,5.0,-999.0,60,-99.99,,,-99.99,,2013-02-17 19:01:00,
2013-02-17 14:11:00,14.0,3.0,29.25,North,360,5.0,-999.0,60,-99.99,,,-99.99,,2013-02-17 19:11:00,
2013-02-17 14:22:00,14.0,2.0,29.20,West,269,7.0,-999.0,59,-99.99,,,-99.99,,2013-02-17 19:22:00,
2013-02-17 14:32:00,14.0,2.0,29.20,West,269,7.0,-999.0,59,-99.99,,,-99.99,,2013-02-17 19:32:00,
2013-02-17 14:42:00,14.0,2.0,29.20,West,269,7.0,-999.0,59,-99.99,,,-99.99,,2013-02-17 19:42:00,
2013-02-17 14:52:00,14.0,2.0,29.24,NNW,328,4.0,-999.0,59,-99.99,,,-99.99,,2013-02-17 19:52:00,
2013-02-17 15:02:00,14.0,2.0,29.24,NNW,328,4.0,-999.0,59,-99.99,,,-99.99,,2013-02-17 20:02:00,
2013-02-17 15:11:00,14.0,2.0,29.24,NNW,328,4.0,-999.0,59,-99.99,,,-99.99,,2013-02-17 20:11:00,
2013-02-17 15:22:00,14.0,3.0,29.20,NNW,344,3.0,-999.0,60,-99.99,,,-99.99,,2013-02-17 20:22:00,
2013-02-17 15:32:00,14.0,3.0,29.20,NNW,344,3.0,-999.0,60,-99.99,,,-99.99,,2013-02-17 20:32:00,
2013-02-17 15:43:00,14.0,3.0,29.20,NNW,344,3.0,-999.0,60,-99.99,,,-99.99,,2013-02-17 20:43:00,
2013-02-17 15:52:00,13.0,2.0,29.20,NNE,20,4.0,-999.0,61,-99.99,,,-99.99,,2013-02-17 20:52:00,
2013-02-17 16:02:00,13.0,2.0,29.25,WNW,298,4.0,-999.0,60,-99.99,,,-99.99,,2013-02-17 21:02:00,
2013-02-17 16:11:00,13.0,2.0,29.25,WNW,298,4.0,-999.0,60,-99.99,,,-99.99,,2013-02-17 21:11:00,
2013-02-17 16:21:00,13.0,2.0,29.21,ENE,61,5.0,-999.0,61,-99.99,,,-99.99,,2013-02-17 21:21:00,
2013-02-17 16:32:00,13.0,2.0,29.27,NE,40,4.0,-999.0,61,-99.99,,,-99.99,,2013-02-17 21:32:00,
2013-02-17 16:42:00,13.0,2.0,29.27,NE,40,4.0,-999.0,61,-99.99,,,-99.99,,2013-02-17 21:42:00,
2013-02-17 16:53:00,13.0,2.0,29.23,NE,48,3.0,-999.0,62,-99.99,,,-99.99,,2013-02-17 21:53:00,
2013-02-17 17:01:00,12.0,2.0,29.28,WNW,302,5.0,-999.0,62,-99.99,,,-99.99,,2013-02-17 22:01:00,
2013-02-17 17:12:00,12.0,2.0,29.28,WNW,302,5.0,-999.0,62,-99.99,,,-99.99,,2013-02-17 22:12:00,
2013-02-17 17:22:00,12.0,2.0,29.30,West,261,3.0,-999.0,63,-99.99,,,-99.99,,2013-02-17 22:22:00,
2013-02-17 17:32:00,12.0,2.0,29.30,West,261,3.0,-999.0,63,-99.99,,,-99.99,,2013-02-17 22:32:00,
2013-02-17 17:42:00,12.0,2.0,29.30,West,261,3.0,-999.0,63,-99.99,,,-99.99,,2013-02-17 22:42:00,
2013-02-17 17:52:00,12.0,2.0,29.25,NE,44,3.0,-999.0,64,-99.99,,,-99.99,,2013-02-17 22:52:00,
2013-02-17 18:02:00,12.0,2.0,29.31,West,281,2.0,-999.0,64,-99.99,,,-99.99,,2013-02-17 23:02:00,
2013-02-17 18:11:00,12.0,2.0,29.31,West,281,2.0,-999.0,64,-99.99,,,-99.99,,2013-02-17 23:11:00,
2013-02-17 18:21:00,12.0,3.0,29.26,NNE,13,4.0,-999.0,66,-99.99,,,-99.99,,2013-02-17 23:21:00,
2013-02-17 18:32:00,12.0,3.0,29.26,NNE,13,4.0,-999.0,66,-99.99,,,-99.99,,2013-02-17 23:32:00,
2013-02-17 18:42:00,12.0,3.0,29.26,NNE,13,4.0,-999.0,66,-99.99,,,-99.99,,2013-02-17 23:42:00,
2013-02-17 18:52:00,12.0,3.0,29.27,West,271,3.0,-999.0,67,-99.99,,,-99.99,,2013-02-17 23:52:00,
2013-02-17 19:02:00,12.0,3.0,29.27,West,271,3.0,-999.0,67,-99.99,,,-99.99,,2013-02-18 00:02:00,
2013-02-17 19:12:00,12.0,3.0,29.27,West,271,3.0,-999.0,67,-99.99,,,-99.99,,2013-02-18 00:12:00,
2013-02-17 19:22:00,12.0,3.0,29.28,SSE,157,4.0,-999.0,66,-99.99,,,-99.99,,2013-02-18 00:22:00,
2013-02-17 19:32:00,12.0,3.0,29.28,SSE,157,4.0,-999.0,66,-99.99,,,-99.99,,2013-02-18 00:32:00,
2013-02-17 19:42:00,12.0,3.0,29.28,SSE,157,4.0,-999.0,66,-99.99,,,-99.99,,2013-02-18 00:42:00,
2013-02-17 19:52:00,11.0,3.0,29.34,SSE,163,3.0,-999.0,68,-99.99,,,-99.99,,2013-02-18 00:52:00,
2013-02-17 20:01:00,11.0,3.0,29.34,SSE,163,3.0,-999.0,68,-99.99,,,-99.99,,2013-02-18 01:01:00,
2013-02-17 20:12:00,11.0,3.0,29.34,SSE,163,3.0,-999.0,68,-99.99,,,-99.99,,2013-02-18 01:12:00,
2013-02-17 20:21:00,11.0,3.0,29.29,SSW,194,3.0,-999.0,68,-99.99,,,-99.99,,2013-02-18 01:21:00,
2013-02-17 20:32:00,11.0,3.0,29.35,SSW,197,3.0,-999.0,68,-99.99,,,-99.99,,2013-02-18 01:32:00,
2013-02-17 20:42:00,11.0,3.0,29.35,SSW,197,3.0,-999.0,68,-99.99,,,-99.99,,2013-02-18 01:42:00,
2013-02-17 20:52:00,11.0,3.0,29.30,West,274,2.0,-999.0,68,-99.99,,,-99.99,,2013-02-18 01:52:00,
2013-02-17 21:02:00,11.0,3.0,29.36,South,182,3.0,-999.0,68,-99.99,,,-99.99,,2013-02-18 02:02:00,
2013-02-17 21:11:00,11.0,3.0,29.36,South,182,3.0,-999.0,68,-99.99,,,-99.99,,2013-02-18 02:11:00,
2013-02-17 21:22:00,11.0,3.0,29.31,SW,233,2.0,-999.0,68,-99.99,,,-99.99,,2013-02-18 02:22:00,
2013-02-17 21:32:00,11.0,3.0,29.37,South,181,5.0,-999.0,68,-99.99,,,-99.99,,2013-02-18 02:32:00,
2013-02-17 21:42:00,11.0,3.0,29.37,South,181,5.0,-999.0,68,-99.99,,,-99.99,,2013-02-18 02:42:00,
2013-02-17 21:52:00,11.0,3.0,29.33,WSW,243,4.0,-999.0,68,-99.99,,,-99.99,,2013-02-18 02:52:00,
2013-02-17 22:02:00,11.0,3.0,29.39,West,270,3.0,-999.0,69,-99.99,,,-99.99,,2013-02-18 03:02:00,
2013-02-17 22:11:00,11.0,3.0,29.39,West,270,3.0,-999.0,69,-99.99,,,-99.99,,2013-02-18 03:11:00,
2013-02-17 22:22:00,10.0,2.0,29.39,SW,222,3.0,-999.0,69,-99.99,,,-99.99,,2013-02-18 03:22:00,
2013-02-17 22:32:00,10.0,2.0,29.39,SW,222,3.0,-999.0,69,-99.99,,,-99.99,,2013-02-18 03:32:00,
2013-02-17 22:42:00,10.0,2.0,29.39,SW,222,3.0,-999.0,69,-99.99,,,-99.99,,2013-02-18 03:42:00,
2013-02-17 22:52:00,11.0,3.0,29.35,SSE,151,4.0,-999.0,69,-99.99,,,-99.99,,2013-02-18 03:52:00,
2013-02-17 23:01:00,10.0,2.0,29.41,SSE,165,3.0,-999.0,69,-99.99,,,-99.99,,2013-02-18 04:01:00,
2013-02-17 23:11:00,10.0,2.0,29.41,SSE,165,3.0,-999.0,69,-99.99,,,-99.99,,2013-02-18 04:11:00,
2013-02-17 23:21:00,10.0,2.0,29.36,WSW,252,2.0,-999.0,69,-99.99,,,-99.99,,2013-02-18 04:21:00,
2013-02-17 23:32:00,10.0,2.0,29.41,West,277,3.0,-999.0,70,-99.99,,,-99.99,,2013-02-18 04:32:00,
2013-02-17 23:42:00,10.0,2.0,29.41,West,277,3.0,-999.0,70,-99.99,,,-99.99,,2013-02-18 04:42:00,
2013-02-17 23:52:00,10.0,2.0,29.37,South,170,4.0,-999.0,70,-99.99,,,-99.99,,2013-02-18 04:52:00,